Location: Cluj-Napoca
(46.7712°N, 23.6236°E)
Time: 18:34:02
(UTC+03:00)

ISS - Visible Passes

Search period start: 26 April 2018 00:00
Search period end: 06 May 2018 00:00
Orbit: 402 x 407 km, 51.6° (Epoch: 27 April)

Date Brightness Start Highest point End Pass type
(mag) Time Alt. Az. Time Alt. Az. Time Alt. Az.
02 May -1.4 05:29:35 10° S 05:31:47 17° SE 05:33:58 10° E visible
04 May -2.6 05:20:21 10° SSW 05:23:21 34° SE 05:26:20 10° ENE visible
05 May -1.9 04:29:45 16° S 04:31:10 20° SE 04:33:39 10° E visible
